Starlink 6231

operational
NORAD ID: 56779 Int'l Des: 2023-078 Owner: SPXS Country: US Constellation: starlink
LEOCIRCULAR

Starlink 6231について

説明を読み込み中...

リアルタイム位置

3D地球を読み込み中...

次回通過

高度履歴

Altitude vs Time

uPlot chart will show altitude changes over time

軌道要素

1 56779U 23078N 26034.44350366 -.00001244 00000-0 -96463-4 0 9995
2 56779 69.9995 50.8078 0003050 270.2968 89.7842 14.98321643148038
Epoch: Feb 3, 2026 • Age: 11 hours

現在のステータス

高度 582.5 km
速度 7.57 km/s
衛星直下点 -32.54°S, 150.8°E
打ち上げ日 May 31, 2023
運用期間 2.6 years
タイプ internet

技術仕様

分類 Payload
質量 305.00 kg
乾燥質量 290.00 kg
総質量 305.00 kg
長さ 0.20 m
直径 2.80 m
スパン 9.00 m
形状 Box + pan
製造者 SPXS
バスタイプ Starlink
フェーズステータス In Orbit
所有者/国 SPXS/US

大規模コンステレーション

Loading constellations...